Date String (YYYY-MM-DD hh:mm:ss) UTC,Instrument flags,absolute air pressure of the measurement (hPa),sample flow rate (lpm),inlet stack bypass flow (lpm),air temperature of the measurement (°C),ambient temperature measured by the external sensor (°C),aerosol sample conditioner tube jacket temperature (°C),OPC LED temperature (°C),internal box temperature (°C),relative humidity of the measurement (%),span deviation,mass concentration of particles derived from Lorenz-Mie calculation of OPC scattering (μg/m³),mass concentration of particles derived from Lorenz-Mie calculation of OPC scattering (μg/m³),mass concentration of particles derived from Lorenz-Mie calculation of OPC scattering (μg/m³)
DateTimeUTC,F1_M11,P_M11,Q1_M11,Q2_M11,T1_M11,T2_M11,T3_M11,T4_M11,T5_M11,U1_M11,ZSPAN_M11,X0_M11,X2_M11,X1_M11
2023-06-03 01:00:00,SystemResetWarning,0827.2,5.00,000.00,029.7,026.0,000.0,037.8,031.1,23.3,0000.0,0005.92,0001.42,0000.84
2023-06-03 01:01:00,SystemResetWarning,0827.2,5.01,000.00,029.6,026.1,000.0,037.8,031.1,23.4,0000.0,0005.89,0001.42,0000.85
2023-06-03 01:02:00,SystemResetWarning,0827.2,5.01,000.00,029.6,026.4,000.0,037.8,031.1,23.5,0000.0,0005.75,0001.37,0000.86
2023-06-03 01:03:00,SystemResetWarning,0827.3,5.00,000.00,029.6,026.8,000.0,037.9,031.1,22.9,0000.0,0005.67,0001.39,0000.87
2023-06-03 01:04:00,SystemResetWarning,0827.3,5.00,000.00,029.6,027.1,000.0,037.9,031.2,23.4,0000.0,0004.81,0001.42,0000.89
2023-06-03 01:05:00,SystemResetWarning,0827.3,4.99,000.00,029.6,027.4,000.0,037.9,031.2,23.4,0000.0,0004.64,0001.41,0000.89
2023-06-03 01:06:00,SystemResetWarning,0827.4,5.01,000.00,029.6,027.6,000.0,037.9,031.3,24.0,0000.0,0004.63,0001.42,0000.90
2023-06-03 01:07:00,SystemResetWarning,0827.3,5.00,000.00,029.6,027.9,000.0,037.9,031.3,23.3,0000.0,0004.53,0001.44,0000.91
2023-06-03 01:08:00,SystemResetWarning,0827.3,5.00,000.00,029.6,028.0,000.0,037.9,031.4,23.1,0000.0,0004.32,0001.38,0000.91
2023-06-03 01:09:00,SystemResetWarning,0827.4,5.00,000.00,029.7,028.2,000.0,037.9,031.4,23.8,0000.0,0003.28,0001.34,0000.91
2023-06-03 01:10:00,SystemResetWarning,0827.4,5.00,000.00,029.7,028.3,000.0,037.9,031.4,23.5,0000.0,0003.35,0001.35,0000.90
2023-06-03 01:11:00,SystemResetWarning,0827.4,5.00,000.00,029.7,028.4,000.0,038.0,031.5,22.7,0000.0,0003.35,0001.34,0000.91
2023-06-03 01:12:00,SystemResetWarning,0827.4,5.00,000.00,029.8,028.5,000.0,038.0,031.5,23.0,0000.0,0003.33,0001.33,0000.91
2023-06-03 01:13:00,SystemResetWarning,0827.4,4.99,000.00,029.8,028.5,000.0,038.0,031.5,23.1,0000.0,0003.58,0001.39,0000.91
2023-06-03 01:14:00,SystemResetWarning,0827.4,5.00,000.00,029.8,027.0,000.0,038.0,031.2,23.0,0000.0,0003.97,0001.43,0000.91
2023-06-03 01:15:00,SystemResetWarning,0827.3,5.00,000.00,029.7,026.0,000.0,037.9,031.1,23.6,0000.0,0004.58,0001.39,0000.91
2023-06-03 01:16:00,SystemResetWarning,0827.4,5.01,000.00,029.6,026.0,000.0,037.8,031.0,23.8,0000.0,0004.46,0001.35,0000.91
2023-06-03 01:17:00,SystemResetWarning,0827.4,5.01,000.00,029.6,026.2,000.0,037.9,031.0,23.2,0000.0,0004.35,0001.36,0000.90
2023-06-03 01:18:00,SystemResetWarning,0827.4,5.00,000.00,029.5,026.5,000.0,037.9,031.1,23.3,0000.0,0004.27,0001.36,0000.90
2023-06-03 01:19:00,SystemResetWarning,0827.4,5.00,000.00,029.5,026.9,000.0,037.9,031.1,23.6,0000.0,0003.91,0001.35,0000.91
2023-06-03 01:20:00,SystemResetWarning,0827.4,4.99,000.00,029.5,027.2,000.0,037.9,031.2,23.6,0000.0,0003.78,0001.35,0000.91
2023-06-03 01:21:00,SystemResetWarning,0827.4,5.00,000.00,029.6,027.5,000.0,037.9,031.2,23.9,0000.0,0003.73,0001.36,0000.92
2023-06-03 01:22:00,SystemResetWarning,0827.4,5.00,000.00,029.6,027.7,000.0,037.9,031.3,23.9,0000.0,0003.84,0001.38,0000.93
2023-06-03 01:23:00,SystemResetWarning,0827.4,5.00,000.00,029.6,027.9,000.0,037.9,031.3,23.7,0000.0,0004.04,0001.43,0000.93
2023-06-03 01:24:00,SystemResetWarning,0827.4,5.00,000.00,029.6,028.1,000.0,037.9,031.4,23.7,0000.0,0003.92,0001.40,0000.94
2023-06-03 01:25:00,SystemResetWarning,0827.5,5.00,000.00,029.7,028.2,000.0,037.9,031.4,24.0,0000.0,0003.59,0001.39,0000.94
2023-06-03 01:26:00,SystemResetWarning,0827.8,5.01,000.00,029.7,028.4,000.0,038.0,031.4,23.7,0000.0,0002.83,0001.41,0000.95
2023-06-03 01:27:00,SystemResetWarning,0827.5,5.00,000.00,029.7,028.5,000.0,038.0,031.5,23.9,0000.0,0002.81,0001.45,0000.95
2023-06-03 01:28:00,SystemResetWarning,0827.5,5.00,000.00,029.8,028.6,000.0,038.0,031.5,23.9,0000.0,0002.85,0001.45,0000.96
2023-06-03 01:29:00,SystemResetWarning,0827.5,4.98,000.00,029.8,027.8,000.0,038.0,031.4,23.9,0000.0,0002.96,0001.46,0000.97
2023-06-03 01:30:00,SystemResetWarning,0827.5,5.01,000.00,029.7,026.2,000.0,037.9,031.2,24.0,0000.0,0003.09,0001.51,0000.98
2023-06-03 01:31:00,SystemResetWarning,0827.5,5.02,000.00,029.7,025.8,000.0,037.8,031.1,24.0,0000.0,0002.85,0001.51,0000.98
2023-06-03 01:32:00,SystemResetWarning,0827.6,5.00,000.00,029.6,026.0,000.0,037.8,031.0,24.3,0000.0,0003.20,0001.55,0000.99
2023-06-03 01:33:00,SystemResetWarning,0827.6,4.99,000.00,029.5,026.3,000.0,037.9,031.1,25.1,0000.0,0003.21,0001.57,0000.99
2023-06-03 01:34:00,SystemResetWarning,0827.6,5.00,000.00,029.5,026.7,000.0,037.9,031.1,25.9,0000.0,0003.10,0001.56,0001.00
2023-06-03 01:35:00,SystemResetWarning,0827.6,5.01,000.00,029.5,027.0,000.0,037.9,031.1,26.4,0000.0,0003.15,0001.58,0001.01
2023-06-03 01:36:00,SystemResetWarning,0827.7,5.00,000.00,029.5,027.3,000.0,037.9,031.2,26.0,0000.0,0003.66,0001.58,0001.03
2023-06-03 01:37:00,SystemResetWarning,0827.7,4.99,000.00,029.6,027.5,000.0,037.9,031.2,26.1,0000.0,0004.07,0001.60,0001.04
2023-06-03 01:38:00,SystemResetWarning,0827.7,4.99,000.00,029.6,027.8,000.0,037.9,031.3,26.1,0000.0,0004.07,0001.56,0001.05
2023-06-03 01:39:00,SystemResetWarning,0827.7,5.00,000.00,029.6,028.0,000.0,037.9,031.3,26.2,0000.0,0004.00,0001.57,0001.05
2023-06-03 01:40:00,SystemResetWarning,0827.7,5.00,000.00,029.6,028.1,000.0,037.9,031.4,26.5,0000.0,0004.03,0001.58,0001.07
2023-06-03 01:41:00,SystemResetWarning,0827.7,5.00,000.00,029.6,028.3,000.0,037.9,031.4,26.5,0000.0,0003.94,0001.53,0001.07
2023-06-03 01:42:00,SystemResetWarning,0827.7,4.99,000.00,029.7,028.4,000.0,037.9,031.4,26.6,0000.0,0003.81,0001.52,0001.06
2023-06-03 01:43:00,SystemResetWarning,0827.7,5.00,000.00,029.7,028.5,000.0,038.0,031.5,26.5,0000.0,0003.44,0001.47,0001.06
2023-06-03 01:44:00,SystemResetWarning,0827.8,5.01,000.00,029.7,028.5,000.0,038.0,031.5,26.3,0000.0,0003.35,0001.46,0001.07
2023-06-03 01:45:00,SystemResetWarning,0827.8,5.01,000.00,029.8,028.6,000.0,038.0,031.5,26.2,0000.0,0003.44,0001.50,0001.07
2023-06-03 01:46:00,SystemResetWarning,0827.8,5.00,000.00,029.8,028.7,000.0,038.0,031.6,26.2,0000.0,0003.48,0001.52,0001.07
2023-06-03 01:47:00,SystemResetWarning,0827.8,4.99,000.00,029.8,028.1,000.0,038.0,031.5,26.4,0000.0,0002.99,0001.52,0001.06
2023-06-03 01:48:00,SystemResetWarning,0827.7,5.00,000.00,029.8,026.3,000.0,038.0,031.2,26.4,0000.0,0002.58,0001.51,0001.04
2023-06-03 01:49:00,SystemResetWarning,0827.7,5.01,000.00,029.7,025.7,000.0,037.9,031.1,26.2,0000.0,0002.57,0001.55,0001.04
2023-06-03 01:50:00,SystemResetWarning,0827.7,5.01,000.00,029.6,025.8,000.0,037.9,031.1,26.1,0000.0,0002.59,0001.55,0001.04
2023-06-03 01:51:00,SystemResetWarning,0827.9,5.01,000.00,029.6,026.2,000.0,037.9,031.1,25.6,0000.0,0002.64,0001.59,0001.03
2023-06-03 01:52:00,SystemResetWarning,0827.8,5.00,000.00,029.6,026.5,000.0,037.9,031.1,25.2,0000.0,0002.69,0001.63,0001.03
2023-06-03 01:53:00,SystemResetWarning,0827.8,5.00,000.00,029.6,026.9,000.0,037.9,031.1,25.2,0000.0,0002.82,0001.67,0001.03
2023-06-03 01:54:00,SystemResetWarning,0827.8,5.00,000.00,029.6,027.2,000.0,037.9,031.2,25.6,0000.0,0003.42,0001.71,0001.03
2023-06-03 01:55:00,SystemResetWarning,0827.9,4.99,000.00,029.6,027.5,000.0,037.9,031.2,25.3,0000.0,0003.57,0001.75,0001.02
2023-06-03 01:56:00,SystemResetWarning,0827.9,5.00,000.00,029.6,027.7,000.0,037.9,031.3,24.7,0000.0,0003.47,0001.71,0001.01
2023-06-03 01:57:00,SystemResetWarning,0828.0,5.00,000.00,029.6,027.9,000.0,037.9,031.3,24.7,0000.0,0003.58,0001.66,0001.01
2023-06-03 01:58:00,SystemResetWarning,0828.1,5.00,000.00,029.6,028.0,000.0,037.9,031.3,24.7,0000.0,0003.87,0001.64,0001.01
2023-06-03 01:59:00,SystemResetWarning,0828.0,5.00,000.00,029.7,028.2,000.0,038.0,031.4,24.5,0000.0,0003.88,0001.63,0001.01
